Location: Pensacola
(30.4142°N, 87.2155°W)
Time: 18:10:56
(UTC-05:00)

AO-27 - Pass Details

Date: 04 June 2024
Orbit: 783 x 797 km, 98.8° (Epoch: 21 June)

Event Time Altitude Azimuth Distance (km) Brightness Sun altitude
Exits shadow 22:52:23 - 243° (WSW) 2,414 10.2 -30.2°
Reaches altitude 10° 22:52:52 10° 248° (WSW) 2,349 10.2 -30.3°
Maximum altitude 22:54:29 11° 267° (W) 2,252 10.3 -30.5°
Drops below altitude 10° 22:56:07 10° 285° (WNW) 2,350 10.6 -30.6°
Sets 23:00:19 0° 318° (NW) 3,281 12.0 -31.1°
